Regional Weather Roundup
Issued by NWS Kansas City/Pleasant Hill, MO

Home | Current Version | Previous Version | Text Only | Print | Product List | Glossary On
Versions: 1 2 3 4 5 6 7 8 9 10 11 12 13 14 15 16 17 18 19 20 21 22 23 24 25 26 27 28 29 30 31 32 33 34 35 36 37 38 39 40 41 42 43 44 45 46 47 48 49 50
000
ASUS43 KEAX 020004
RWREAX

WEATHER ROUNDUP FOR EASTERN KANSAS AND NORTHWEST MISSOURI
NATIONAL WEATHER SERVICE KANSAS CITY/PLEASANT HILL MO
700 PM CDT WED JUL 01 2015

KSZ040-057-103>105-MOZ028-029-037-043-020100-
...KANSAS CITY METROPOLITAN AREA...

CITY           SKY/WX    TMP DP  RH WIND       PRES   REMARKS
K.C. INTL      PTSUNNY   83  75  77 E12       29.81S HX  90
6HR MIN TEMP:  79; 6HR MAX TEMP:  85;

K.C. DOWNTOWN  TSTM      81  76  84 NW9       29.79S
6HR MIN TEMP:  81; 6HR MAX TEMP:  87; 6HR PCP:  0.10;

LEES SUMMIT    TSTM      75  72  90 MISG      29.79F FOG
6HR MIN TEMP:  75; 6HR MAX TEMP:  84; 6HR PCP:  0.07;

OLATHE - IXD   SUNNY     87  77  72 S9        29.79F HX  99
6HR MIN TEMP:  80; 6HR MAX TEMP:  87; 6HR PCP: TRACE;

OLATHE - OJC   MOSUNNY   85  77  77 SE7       29.79F HX  95
6HR MIN TEMP:  78; 6HR MAX TEMP:  85;

LAWRENCE       SUNNY     87  77  72 E6        29.77F HX  99

$$

MOZ001>008-011>017-020>025-030>033-038>040-044>046-053-054-020100-
...NORTHERN AND CENTRAL MISSOURI...

CITY           SKY/WX    TMP DP  RH WIND       PRES   REMARKS
ST. JOSEPH     MOSUNNY   83  74  74 NE8       29.81F
6HR MIN TEMP:  80; 6HR MAX TEMP:  86;

MOSBY          PTCLDY    81  73  78 E6        29.80F
HARRISONVILLE  MOSUNNY   88  75  66 S8        29.82F HX  97
WHITEMAN AFB   PTSUNNY   81  74  80 SE5       29.81F
6HR MIN TEMP:  74; 6HR MAX TEMP:  82;

CLINTON        PTSUNNY   84  77  79 S5        29.82S HX  94
SEDALIA        CLOUDY    82  75  79 E6        29.84F
6HR MIN TEMP:  75; 6HR MAX TEMP:  84;

WARSAW         FAIR      81  77  89 CALM      29.83F
CHILLICOTHE      N/A     83  72  69 NE8       29.84S
6HR MIN TEMP:  77; 6HR MAX TEMP:  86;

KIRKSVILLE     CLOUDY    76  70  82 NE12      29.89R
6HR MIN TEMP:  75; 6HR MAX TEMP:  82; 6HR PCP:  0.01;


$$

MOZ041-047>049-056>058-063>065-088>090-097-020100-
...EASTERN AND SOUTHERN MISSOURI...

CITY           SKY/WX    TMP DP  RH WIND       PRES   REMARKS
ST. LOUIS INTL CLOUDY    82  68  62 N3        29.87R
6HR MIN TEMP:  82; 6HR MAX TEMP:  87; 6HR PCP: TRACE;

SPIRIT OF STL  CLOUDY    80  73  79 SW7       29.85F
COLUMBIA       CLOUDY    79  73  82 E7        29.85F
JEFFERSON CITY MOSUNNY   80  72  76 SE5       29.84F
MEXICO         RAIN      79  75  89 S3        29.88S
ROLLA            N/A     77  72  84 S6        29.87S
LEBANON        MOSUNNY   81  73  78 S6        29.86F
OSAGE BEACH    MOSUNNY   84  73  70 S5        29.84F HX  91
SPRINGFIELD    MOSUNNY   84  74  71 S13       29.84F HX  91
BRANSON        PTSUNNY   82  73  74 SE6       29.89F
JOPLIN         CLOUDY    84  74  71 S13       29.82F HX  91
WEST PLAINS    MOSUNNY   79  73  82 S5        29.91R
MALDEN         SUNNY     84  70  61 S8        29.90S

$$

IAZ060-094-KSZ022-034>040-054-083-096-NEZ052-066-093-020100-
...KANSAS...SOUTHEAST NEBRASKA AND IOWA...

CITY           SKY/WX    TMP DP  RH WIND       PRES   REMARKS
TOPEKA         SUNNY     92  71  50 N5        29.77F HX  98
6HR MIN TEMP:  85; 6HR MAX TEMP:  93;

MANHATTAN      SUNNY     93  64  38 VRB3      29.77S HX  94
EMPORIA        SUNNY     91  71  51 S8        29.78S HX  97
CHANUTE        PTSUNNY   88  73  61 S16G29    29.78S HX  95
WICHITA        MOSUNNY   97  66  36 N8        29.74F HX 100
OMAHA          MOSUNNY   80  68  66 NE12      29.87R
LINCOLN        PTSUNNY   83  71  67 NE15      29.85R
FALLS CITY     SUNNY     83  72  69 E7        29.82S
LAMONI         PTSUNNY   77  69  76 NE9       29.88S
DES MOINES     CLOUDY    73  60  63 E12       29.91S

$$



USA.gov is the U.S. government's official web portal to all federal, state and local government web resources and services.